TimePST,TemperatureF,Dew PointF,Humidity,Sea Level PressureIn,VisibilityMPH,Wind Direction,Wind SpeedMPH,Gust SpeedMPH,PrecipitationIn,Events,Conditions,WindDirDegrees,DateUTC
12:53 AM,39.9,37.0,89,30.21,10.0,Calm,Calm,-,N/A,,Clear,0,2012-11-20 08:53:00
1:53 AM,39.9,37.0,89,30.21,10.0,Calm,Calm,-,N/A,,Clear,0,2012-11-20 09:53:00
2:53 AM,37.9,37.0,97,30.20,10.0,Calm,Calm,-,N/A,,Clear,0,2012-11-20 10:53:00
3:53 AM,37.0,36.0,96,30.19,10.0,ESE,3.5,-,N/A,,Clear,110,2012-11-20 11:53:00
4:53 AM,36.0,35.1,97,30.20,10.0,East,3.5,-,N/A,,Clear,100,2012-11-20 12:53:00
5:53 AM,36.0,35.1,97,30.21,10.0,Calm,Calm,-,N/A,,Clear,0,2012-11-20 13:53:00
6:53 AM,36.0,34.0,93,30.23,10.0,East,3.5,-,N/A,,Clear,90,2012-11-20 14:53:00
7:53 AM,39.9,37.9,93,30.24,10.0,Calm,Calm,-,N/A,,Clear,0,2012-11-20 15:53:00
8:32 AM,44.6,39.2,81,30.23,10.0,SE,3.5,-,N/A,,Mostly Cloudy,130,2012-11-20 16:32:00
8:53 AM,46.9,42.1,83,30.23,10.0,Calm,Calm,-,N/A,,Mostly Cloudy,0,2012-11-20 16:53:00
9:00 AM,48.2,42.8,82,30.22,10.0,SSE,4.6,-,N/A,,Mostly Cloudy,150,2012-11-20 17:00:00
9:14 AM,50.0,42.8,76,30.22,10.0,SE,5.8,-,N/A,,Scattered Clouds,140,2012-11-20 17:14:00
9:53 AM,53.1,44.1,71,30.21,10.0,Variable,3.5,-,N/A,,Clear,0,2012-11-20 17:53:00
11:53 AM,62.1,48.0,60,30.15,10.0,Calm,Calm,-,N/A,,Clear,0,2012-11-20 19:53:00
12:53 PM,64.9,48.9,56,30.11,10.0,Calm,Calm,-,N/A,,Clear,0,2012-11-20 20:53:00
1:53 PM,68.0,48.9,50,30.09,10.0,Variable,3.5,-,N/A,,Clear,0,2012-11-20 21:53:00
2:53 PM,66.0,48.9,54,30.09,10.0,SSW,3.5,-,N/A,,Clear,210,2012-11-20 22:53:00
3:53 PM,66.9,50.0,54,30.09,10.0,WSW,4.6,-,N/A,,Clear,250,2012-11-20 23:53:00
4:53 PM,62.1,53.1,72,30.09,10.0,SSW,9.2,-,N/A,,Clear,210,2012-11-21 00:53:00
5:53 PM,57.9,53.1,84,30.09,10.0,South,6.9,-,N/A,,Clear,190,2012-11-21 01:53:00
6:53 PM,55.9,52.0,87,30.11,10.0,South,5.8,-,N/A,,Clear,180,2012-11-21 02:53:00
7:53 PM,53.1,51.1,93,30.12,10.0,Calm,Calm,-,N/A,,Clear,0,2012-11-21 03:53:00
8:53 PM,50.0,48.9,96,30.12,10.0,ESE,3.5,-,N/A,,Clear,110,2012-11-21 04:53:00
9:53 PM,48.0,48.0,100,30.13,10.0,East,3.5,-,N/A,,Clear,90,2012-11-21 05:53:00
10:53 PM,48.0,46.9,96,30.13,10.0,Calm,Calm,-,N/A,,Clear,0,2012-11-21 06:53:00
11:53 PM,48.0,46.0,93,30.14,10.0,Calm,Calm,-,N/A,,Clear,0,2012-11-21 07:53:00